TITAN 3C TRANSTAGE DEB, 47713

Orbit data source: Space-Track

TITAN 3C TRANSTAGE DEB, 47713 is space debris in HEO originally from a launch on Tue, 21 Dec 1965 UTC launched from the Air Force Eastern Test Range (AFETR). Debris objects in space refer to the collection of defunct objects orbiting the Earth. Examples of debris include non-operational satellites, rocket bodies, and fragments generated from explosions, collisions, or faulty payload assembly.

Loading next visibility...
Identifier
47713, 1965-108DS
Orbit
HEO
Country
Flag of USUS
Related business
Manufacturer
Unknown
Mission
Spacecraft
Bus & Motor
Unknown
Mass
Unknown
Launch date (UTC)
1965-12-21 (60 years ago)
Launch vehicle
Unknown
Launch site
Air Force Eastern Test Range (AFETR)
Object type
Payload
Rocket body
Debris
Shape & HBR
Unknown shape, 0.1 m
Radar Cross Section
Small (<0.1 m²)

Expand to show TLE details & history
Last TLE update: 5 days ago

TLE from 5 days ago
0 TITAN 3C TRANSTAGE DEB
1 47713U 65108DS  26128.82259380  .00000215  00000-0  80669-3 0  9998
2 47713  26.9925 332.6103 5506377 157.8675 240.2192  4.52286532205528
Epoch: 2026-05-08T19:44Z
TLE epoch observation values (Epoch: 2026-05-08T19:44:32.104Z)
Latitude
-0.00004°
Longitude
169.82853°
Altitude
15,577.505 km
Speed
3.241 km/s
True Right ascension
22h 10m 26s
True Declination
0° 00' 00"
Sunlit
Object was in daylight at epoch
Visualization orbit readout
Latitude
Unknown
Longitude
Unknown
Altitude
Unknown
Speed
Unknown
Apparent Right ascension
Unknown
Apparent Declination
Unknown
Sunlit
N/A
Visualization observer readout
Local Sidereal Time
00:49:18
Azimuth
Unknown
Elevation
Unknown
Doppler factor
Unknown
Orbital elements
Apogee altitude
17,576.997 km
Perigee altitude
563.868 km
Semi-major axis
15,448.569 km
Eccentricity
0.55064
Inclination
26.9925°
RAAN
332.6103°
Arg. of periapsis
157.8675°
True anomaly
202.1466°
Mean anomaly
240.2192°
Eccentric anomaly
219.95763°
Mean motion
1.13034 °/min
Orbital period
318.49 mins
BSTAR
0.00080669
Loading maneuver chart data...
Computing Atmospheric mass density...

Documentation

Showing up to 5 results
|